Kezdőlap
METAR-TAF:

METAR-TAF

Repülőterek :

Decorah Municipal Airport

Decorah, Iowa, Amerikai Egyesült Államok

földrajzi szélesség: 43-17N, földrajzi hosszúság: 091-44W, magasság: 353 m

Jelenlegi meteorológiai megfigyelések

A jelentés 17 perccel ezelõtt készült, 11:55 UTC
Észak-északnyugati szél 7 kt
Hőmérséklet 20°C
Páratartalom 100%
Légköri nyomás 1009 hPa
Látótávolság: 16.1 km
Derült ég

METAR: KDEH 161155Z AUTO 33007KT 10SM CLR 20/20 A2980 RMK AO2

Idő: 07:12 (12:12 UTC)


TAF: hiányzik

Meteorológiai megfigyelések és előrejelzések több, mint 4000 repülőtéren (METAR és TAF jelentéseket).

A térképen piros és sárga pontok jelzik az elérhető meteorológiai állomásokat.

Mozgassa az egeret a pont fölött, hogy megjelenjen az állomás neve.

Azután kattintson az időjárási megfigyelések és előrejelzések megtekintéséhez.

A térkép megváltoztatása: kattintson a fekete keresztel jelölt zöld gombra ráközelítéshez, a vonallal jelölt zöld gombra távolításhoz, vagy a zöld nyilakra a szomszédos térképek eléréséhez.


METAR-TAF: